Wind_Speed
35 34 31 29 28 28 26 24 24 24 24 23 21 21 20 20 20 20 20 19 19 18 19 18 19 19 21 22 23 24 24 25 26 26 27 27 27 27 27 28 28 29 30
35 34 32 31 29 29 29 26 25 26 25 25 23 23 22 20 20 19 18 18 19 19 19 20 20 21 23 24 25 25 25 26 26 27 27 27 29 29 29 30 30 31 32
34 33 31 31 32 31 28 27 25 25 26 26 24 23 22 21 20 20 19 20 20 20 21 22 21 22 23 24 24 26 27 26 25 26 27 27 28 28 30 31 32 32 34
32 32 32 32 33 32 30 29 27 26 26 27 26 25 24 22 20 20 21 22 23 23 23 23 22 23 23 23 24 24 24 25 26 27 28 29 30 31 31 33 34 36 37
30 31 31 32 32 32 32 29 28 27 28 27 26 26 25 24 21 20 22 23 24 24 23 23 23 23 23 24 24 24 25 26 28 30 31 32 33 33 34 35 37 39 40
30 32 32 34 33 31 32 31 28 25 25 26 25 24 23 21 20 20 22 23 23 23 24 25 24 24 24 24 25 26 26 28 30 31 32 33 34 35 37 39 40 41 43
28 30 31 32 32 32 30 29 26 24 24 24 24 23 22 21 21 21 22 23 23 24 25 26 26 26 26 26 26 28 29 31 32 32 33 34 36 38 40 42 44 46 47
28 28 28 29 30 30 28 28 27 24 23 24 24 24 24 24 24 24 24 25 26 27 26 27 28 29 29 30 31 32 33 34 35 35 37 38 40 41 43 45 46 48 50
26 26 27 28 29 29 28 27 26 26 25 25 25 25 26 25 26 27 27 28 29 29 29 30 31 32 33 34 34 35 36 37 38 39 40 41 43 44 45 46 48 49 51
26 27 26 27 28 28 28 27 26 26 26 25 25 25 26 27 28 29 30 31 31 31 32 33 34 36 37 37 38 39 39 40 41 42 42 43 44 46 47 48 50 52 53
25 25 25 26 26 26 26 25 25 26 26 26 27 27 28 29 30 31 32 33 34 35 36 37 38 39 39 39 40 41 41 41 42 42 43 44 45 46 47 49 50 52 53
25 24 24 24 25 25 25 25 26 26 27 27 28 29 30 30 31 33 34 35 37 38 39 40 41 40 40 40 41 41 41 42 42 43 43 44 45 46 46 47 48 48 49
22 23 23 23 23 24 25 26 27 28 28 29 30 31 32 34 35 36 37 38 39 40 40 40 40 40 40 40 40 40 40 41 41 42 42 43 44 44 45 44 44 44 44
18 20 22 23 24 25 26 27 28 29 30 31 33 34 35 36 37 38 38 39 39 39 39 39 39 39 39 39 39 39 40 40 40 40 41 41 41 41 41 42 42 42 42
17 19 21 23 25 26 27 28 29 30 32 33 34 35 36 36 37 37 37 37 37 38 38 37 37 37 37 38 38 38 38 38 38 39 39 38 38 38 39 39 38 37 36
19 21 22 24 25 26 27 28 29 30 31 32 33 34 34 34 34 35 35 36 36 36 35 35 35 35 35 35 35 35 36 35 35 35 35 35 35 34 34 33 33 32 31
18 20 22 23 24 25 26 27 28 29 30 30 31 31 31 31 31 31 32 32 32 32 31 31 32 32 33 33 33 33 33 32 32 31 31 31 30 29 29 28 27 26 26
18 20 22 22 23 24 25 26 27 27 27 27 27 28 28 28 28 28 28 28 28 29 29 29 30 30 31 31 30 30 29 28 28 28 27 26 25 23 22 21 21 21 20
17 19 21 22 23 24 23 23 23 24 24 24 25 25 25 25 25 26 26 27 27 28 28 29 29 29 28 28 27 25 25 24 24 23 22 21 20 19 19 19 18 17 17
16 17 19 20 20 20 21 20 21 21 22 22 22 22 23 24 25 25 25 26 27 27 27 27 27 26 24 23 22 22 22 21 20 19 18 17 17 16 16 16 16 15 15
14 15 16 17 18 18 19 19 19 19 20 20 20 21 22 22 23 23 24 24 25 24 24 23 22 21 20 20 19 19 18 17 16 15 15 14 14 15 15 15 15 14 14
10 11 12 13 13 14 15 16 16 17 17 18 19 19 20 20 21 21 21 21 20 20 19 19 19 18 17 16 16 16 15 14 14 14 13 13 14 14 15 15 15 14 15
7 8 8 10 11 12 13 14 15 16 17 18 18 18 18 18 18 18 18 17 17 16 16 16 16 15 15 14 14 14 13 13 12 12 12 12 13 14 14 14 15 15 15
7 7 8 9 10 12 12 14 15 16 17 17 18 17 17 16 16 16 15 15 15 14 14 13 13 13 13 12 12 12 12 11 10 10 11 12 13 14 14 14 15 16 16
8 8 9 10 11 12 13 14 15 16 16 16 15 15 14 14 14 14 13 13 12 12 12 11 11 11 11 11 11 11 10 10 10 11 12 13 13 14 14 15 15 16 16
9 9 10 11 11 12 13 14 14 15 15 14 14 13 13 13 12 12 11 11 11 11 10 10 9 9 9 9 10 9 9 9 10 11 12 12 13 14 14 15 15 15 15
Wind_Direction
248 252 255 257 250 248 249 250 247 247 244 241 241 234 234 232 234 239 244 250 251 256 261 267 271 272 272 274 279 281 281 284 285 286 287 287 285 283 283 281 278 276 275
243 246 249 252 254 256 256 251 248 246 241 235 237 236 236 235 237 238 247 254 260 265 266 269 271 271 275 276 280 281 282 285 285 285 285 284 283 283 282 281 279 278 276
241 245 250 253 253 254 255 254 252 240 239 237 239 239 239 240 242 247 254 257 262 266 269 270 274 277 279 280 282 282 283 283 284 284 285 284 283 281 281 281 280 279 277
241 246 249 251 254 256 257 259 250 245 243 241 239 242 242 244 250 255 261 262 264 270 272 273 278 281 284 284 285 286 287 286 285 283 282 283 283 282 281 280 279 280 279
245 247 249 252 252 256 261 262 257 248 246 244 240 241 246 250 253 260 267 269 270 273 277 279 284 285 285 285 285 286 288 287 283 282 282 281 282 282 282 282 281 281 280
244 247 250 253 254 259 263 267 263 257 250 246 247 250 251 258 265 266 271 275 277 281 287 290 287 288 289 288 287 287 289 287 285 283 281 281 282 282 283 283 282 282 281
246 248 250 252 255 260 265 270 269 262 256 256 262 264 263 270 276 274 281 284 285 289 292 291 291 294 295 295 293 290 290 289 287 284 282 281 282 283 284 284 283 282 281
249 252 253 254 257 262 266 268 270 270 269 267 268 272 275 280 284 286 288 290 291 293 295 294 293 295 296 295 293 292 290 289 287 285 283 282 283 283 284 285 284 283 283
252 254 253 253 256 259 263 265 267 270 272 272 274 276 278 280 283 287 288 288 290 292 293 292 293 294 293 293 292 291 291 288 287 285 284 284 284 285 285 285 284 284 283
250 251 252 252 253 257 262 262 264 269 271 273 276 277 277 279 281 283 285 286 288 288 289 290 291 291 291 291 291 291 291 290 289 288 287 286 286 286 286 285 284 284 284
247 247 249 252 255 257 260 264 265 268 270 272 274 275 276 278 279 280 283 285 287 288 290 290 291 291 291 291 290 291 291 291 291 290 289 289 288 288 287 286 286 285 285
245 248 251 253 255 258 260 262 264 266 267 269 271 273 275 277 279 281 283 285 286 288 289 290 291 291 292 292 292 293 293 293 292 292 291 290 290 289 289 289 288 288 287
247 250 253 256 258 259 261 263 264 266 267 269 271 273 275 277 279 281 283 285 286 288 289 290 291 292 293 293 294 294 294 294 293 292 291 291 291 290 290 290 289 289 288
252 256 257 257 259 261 263 263 264 266 267 269 272 274 277 279 281 282 284 286 288 289 290 291 291 292 293 294 294 294 295 294 294 293 293 292 292 291 290 290 289 289 288
261 261 262 261 261 261 262 263 266 268 269 271 274 276 278 280 281 283 285 286 288 289 290 291 292 293 293 295 295 295 295 294 294 293 293 293 293 293 293 292 292 291 291
262 262 264 264 263 264 265 267 270 272 274 275 276 278 279 280 282 285 286 287 288 289 290 291 292 293 294 294 294 294 294 295 295 295 295 295 296 297 296 296 295 295 296
264 263 265 264 264 266 269 273 275 276 277 278 278 279 281 283 285 286 287 287 287 287 289 290 291 291 293 294 294 294 295 296 297 299 300 301 300 299 300 301 302 303 303
266 265 263 262 266 270 273 275 275 276 277 278 280 281 282 284 286 286 286 286 287 288 289 290 291 292 293 294 294 296 297 300 302 304 305 306 307 309 310 309 309 310 311
266 265 266 269 270 272 275 276 276 278 279 280 282 283 283 284 284 285 285 286 287 289 290 291 292 292 294 295 297 299 302 305 307 309 311 313 315 317 316 316 316 317 318
270 270 270 271 273 274 275 276 277 279 280 281 282 282 282 283 284 285 286 287 288 289 290 291 292 293 296 298 300 303 305 307 309 312 314 316 319 321 323 324 325 324 325
275 273 271 272 274 276 277 277 278 279 280 281 282 284 286 286 287 287 289 289 290 290 291 293 294 296 298 300 303 306 308 310 312 315 318 321 324 327 328 329 329 329 328
282 279 276 277 277 277 278 280 281 282 282 284 286 288 289 290 291 292 293 294 293 293 294 295 298 301 302 303 305 308 309 310 313 315 319 324 327 329 329 329 329 329 329
295 293 289 287 285 284 283 283 283 283 284 285 287 290 292 293 294 295 295 295 295 296 297 298 299 301 303 304 306 308 310 312 314 317 321 326 329 329 329 329 329 329 329
315 307 300 296 293 291 288 286 287 288 288 288 288 290 291 292 293 293 294 296 296 297 299 301 302 302 304 305 307 311 314 316 318 320 324 328 330 330 330 329 329 330 331
322 315 309 305 301 298 295 294 293 293 291 289 288 290 291 291 291 292 295 297 297 298 300 301 303 304 306 308 311 314 316 319 322 325 327 330 331 332 331 330 329 329 329
331 326 321 316 311 306 303 301 299 296 293 290 288 289 290 289 291 294 297 298 299 300 302 305 307 309 311 315 319 322 325 327 328 328 330 330 331 332 331 330 330 331 332
Height
5832 5834 5836 5837 5837 5838 5841 5842 5844 5844 5846 5848 5849 5850 5850 5851 5852 5852 5851 5852 5852 5853 5854 5854 5854 5855 5854 5854 5854 5854 5853 5852 5850 5849 5847 5845 5844 5842 5840 5838 5837 5835 5834
5827 5829 5831 5832 5834 5834 5835 5836 5837 5836 5838 5840 5842 5843 5844 5845 5846 5846 5846 5846 5847 5847 5847 5848 5848 5848 5848 5848 5848 5847 5846 5845 5844 5843 5841 5840 5838 5835 5833 5831 5830 5828 5826
5822 5824 5826 5828 5828 5828 5828 5828 5828 5829 5831 5834 5835 5837 5838 5839 5840 5841 5841 5841 5841 5842 5842 5842 5842 5842 5842 5842 5841 5841 5840 5839 5837 5836 5834 5833 5831 5829 5827 5824 5822 5820 5818
5817 5819 5821 5822 5822 5822 5823 5823 5821 5822 5823 5825 5827 5829 5831 5832 5833 5835 5836 5836 5836 5836 5836 5835 5835 5835 5835 5835 5834 5834 5832 5831 5830 5828 5826 5825 5823 5821 5819 5816 5813 5811 5809
5811 5814 5816 5817 5816 5817 5818 5817 5816 5815 5816 5819 5821 5822 5824 5826 5827 5829 5829 5830 5830 5830 5829 5828 5829 5829 5828 5828 5827 5827 5825 5824 5823 5821 5818 5816 5814 5812 5810 5807 5805 5802 5799
5805 5807 5810 5811 5811 5811 5813 5813 5811 5809 5810 5812 5814 5816 5817 5819 5820 5821 5823 5823 5823 5823 5823 5823 5823 5822 5822 5821 5820 5819 5817 5816 5814 5812 5810 5808 5806 5803 5800 5797 5794 5791 5789
5800 5801 5803 5805 5805 5806 5807 5808 5807 5807 5807 5808 5809 5810 5811 5813 5814 5814 5815 5815 5816 5816 5816 5816 5816 5815 5814 5813 5812 5811 5809 5807 5805 5802 5800 5798 5795 5793 5790 5787 5783 5780 5777
5795 5796 5797 5798 5800 5801 5802 5803 5803 5804 5804 5804 5805 5806 5807 5807 5808 5808 5809 5810 5810 5809 5809 5809 5808 5807 5806 5805 5803 5802 5800 5798 5795 5793 5790 5787 5784 5781 5778 5775 5772 5768 5764
5789 5790 5791 5793 5794 5796 5797 5798 5798 5799 5800 5800 5801 5802 5802 5802 5802 5803 5803 5803 5803 5802 5802 5801 5800 5799 5797 5796 5794 5792 5790 5787 5784 5781 5779 5776 5773 5769 5766 5763 5759 5756 5751
5784 5786 5787 5788 5789 5790 5791 5792 5793 5794 5795 5795 5796 5796 5797 5797 5797 5797 5797 5796 5795 5795 5794 5793 5791 5789 5787 5785 5783 5781 5778 5776 5773 5770 5767 5764 5760 5757 5753 5749 5745 5741 5737
5778 5780 5782 5783 5783 5784 5785 5786 5787 5788 5789 5789 5790 5790 5790 5790 5790 5790 5790 5789 5787 5786 5784 5782 5781 5779 5777 5775 5772 5770 5767 5764 5761 5758 5754 5751 5747 5743 5739 5735 5731 5726 5721
5772 5774 5776 5777 5778 5779 5780 5780 5781 5782 5783 5783 5783 5783 5783 5783 5782 5782 5781 5780 5778 5776 5775 5773 5771 5768 5766 5764 5761 5758 5755 5752 5749 5745 5742 5738 5734 5730 5726 5721 5716 5712 5706
5766 5768 5770 5771 5772 5773 5774 5774 5775 5775 5776 5776 5776 5776 5775 5775 5774 5773 5772 5771 5769 5767 5764 5762 5760 5758 5755 5752 5750 5747 5744 5740 5737 5733 5730 5726 5721 5717 5712 5708 5703 5698 5693
5761 5763 5764 5765 5766 5767 5767 5768 5768 5768 5768 5768 5768 5767 5767 5766 5765 5764 5762 5761 5759 5756 5754 5752 5749 5747 5744 5742 5739 5736 5733 5729 5725 5721 5718 5713 5709 5704 5700 5695 5690 5685 5680
5757 5758 5759 5759 5759 5760 5760 5760 5760 5760 5760 5760 5760 5759 5758 5757 5756 5754 5753 5751 5749 5746 5744 5742 5739 5737 5734 5731 5728 5725 5722 5718 5714 5710 5706 5701 5697 5692 5687 5682 5678 5673 5669
5751 5752 5752 5752 5752 5752 5752 5752 5752 5752 5752 5751 5751 5750 5749 5748 5746 5745 5743 5741 5739 5737 5734 5732 5730 5727 5724 5721 5718 5715 5711 5707 5703 5699 5694 5690 5685 5680 5676 5672 5667 5664 5660
5746 5746 5746 5745 5745 5745 5745 5744 5744 5743 5743 5742 5742 5741 5740 5739 5737 5736 5734 5732 5730 5728 5726 5723 5721 5718 5715 5712 5708 5705 5702 5698 5693 5689 5685 5680 5675 5671 5667 5663 5660 5656 5652
5740 5739 5739 5738 5738 5738 5738 5737 5737 5736 5736 5735 5734 5733 5732 5730 5729 5727 5726 5724 5722 5720 5717 5715 5712 5709 5706 5703 5700 5696 5693 5689 5685 5681 5676 5672 5668 5665 5661 5658 5654 5651 5647
5733 5733 5733 5732 5732 5731 5731 5731 5730 5729 5728 5727 5726 5725 5724 5723 5721 5719 5718 5716 5714 5712 5709 5707 5704 5701 5698 5695 5692 5689 5685 5682 5678 5674 5670 5667 5663 5660 5657 5654 5650 5647 5644
5728 5727 5727 5726 5726 5726 5725 5724 5724 5723 5722 5721 5719 5718 5717 5715 5714 5712 5710 5708 5706 5704 5701 5699 5696 5693 5691 5688 5685 5682 5679 5676 5673 5669 5666 5663 5660 5657 5653 5650 5647 5644 5641
5723 5722 5721 5721 5720 5720 5719 5719 5718 5717 5716 5714 5713 5712 5710 5708 5706 5705 5703 5701 5699 5696 5694 5691 5689 5687 5685 5682 5680 5677 5674 5671 5668 5666 5663 5660 5657 5654 5651 5648 5645 5642 5639
5718 5718 5717 5716 5715 5715 5714 5713 5712 5711 5710 5709 5707 5705 5704 5702 5700 5698 5696 5694 5692 5690 5688 5686 5684 5682 5680 5678 5675 5673 5670 5668 5665 5663 5660 5658 5655 5652 5649 5647 5644 5641 5638
5715 5714 5714 5713 5712 5711 5710 5709 5708 5706 5705 5703 5701 5700 5698 5696 5694 5692 5690 5689 5687 5685 5683 5681 5680 5678 5676 5674 5672 5670 5667 5665 5663 5660 5658 5656 5653 5650 5648 5645 5642 5639 5636
5713 5712 5711 5710 5708 5707 5706 5704 5703 5701 5699 5698 5696 5694 5693 5691 5689 5688 5686 5684 5682 5681 5679 5678 5676 5675 5673 5671 5669 5667 5665 5663 5661 5658 5656 5654 5651 5649 5646 5643 5640 5637 5634
5711 5709 5708 5706 5705 5703 5702 5700 5698 5696 5694 5692 5691 5689 5688 5686 5685 5684 5682 5681 5679 5678 5676 5675 5673 5672 5670 5669 5667 5665 5663 5661 5659 5656 5654 5652 5649 5647 5644 5641 5638 5635 5632
5709 5707 5705 5703 5701 5699 5697 5695 5693 5691 5689 5688 5686 5685 5684 5682 5681 5680 5679 5677 5676 5675 5673 5672 5671 5669 5668 5666 5665 5663 5661 5659 5657 5655 5652 5650 5648 5645 5642 5639 5636 5633 5629